Time,TemperatureF,DewpointF,PressureIn,WindDirection,WindDirectionDegrees,WindSpeedMPH,WindSpeedGustMPH,Humidity,HourlyPrecipIn,Conditions,Clouds,dailyrainin,SoftwareType,DateUTC
2013-02-12 00:01:00,12.7,10.0,30.06,West,261,2.0,3.0,88,0.00,,,0.00,weatherlink.com 1.10,2013-02-12 06:01:00,
2013-02-12 00:17:00,12.4,10.0,30.06,WSW,254,0.0,3.0,88,0.00,,,0.00,weatherlink.com 1.10,2013-02-12 06:17:00,
2013-02-12 00:31:00,11.7,9.0,30.06,WSW,254,0.0,2.0,88,0.00,,,0.00,weatherlink.com 1.10,2013-02-12 06:31:00,
2013-02-12 00:46:00,11.5,9.0,30.06,WSW,254,0.0,0.0,89,0.00,,,0.00,weatherlink.com 1.10,2013-02-12 06:46:00,
2013-02-12 01:01:00,11.6,9.0,30.06,WSW,254,1.0,2.0,89,0.00,,,0.00,weatherlink.com 1.10,2013-02-12 07:01:00,
2013-02-12 01:17:00,12.0,9.0,30.05,WSW,252,1.0,2.0,89,0.00,,,0.00,weatherlink.com 1.10,2013-02-12 07:17:00,
2013-02-12 01:31:00,12.7,10.0,30.06,WSW,248,0.0,4.0,89,0.00,,,0.00,weatherlink.com 1.10,2013-02-12 07:31:00,
2013-02-12 01:46:00,13.5,11.0,30.05,SW,223,1.0,3.0,90,0.00,,,0.00,weatherlink.com 1.10,2013-02-12 07:46:00,
2013-02-12 02:02:00,14.0,12.0,30.06,SW,226,2.0,3.0,90,0.00,,,0.00,weatherlink.com 1.10,2013-02-12 08:02:00,
2013-02-12 02:17:00,14.6,12.0,30.06,SW,229,0.0,3.0,90,0.00,,,0.00,weatherlink.com 1.10,2013-02-12 08:17:00,
2013-02-12 02:32:00,15.1,13.0,30.06,SW,229,1.0,3.0,90,0.00,,,0.00,weatherlink.com 1.10,2013-02-12 08:32:00,
2013-02-12 02:47:00,15.5,13.0,30.06,SW,221,0.0,4.0,89,0.00,,,0.00,weatherlink.com 1.10,2013-02-12 08:47:00,
2013-02-12 03:02:00,15.8,13.0,30.05,SW,221,0.0,3.0,89,0.00,,,0.00,weatherlink.com 1.10,2013-02-12 09:02:00,
2013-02-12 03:17:00,16.1,14.0,30.05,SW,221,0.0,4.0,89,0.00,,,0.00,weatherlink.com 1.10,2013-02-12 09:17:00,
2013-02-12 03:32:00,16.3,13.0,30.04,SW,215,3.0,4.0,88,0.00,,,0.00,weatherlink.com 1.10,2013-02-12 09:32:00,
2013-02-12 03:47:00,16.3,13.0,30.04,SW,215,0.0,3.0,88,0.00,,,0.00,weatherlink.com 1.10,2013-02-12 09:47:00,
2013-02-12 04:02:00,16.4,14.0,30.04,SW,215,0.0,4.0,88,0.00,,,0.00,weatherlink.com 1.10,2013-02-12 10:02:00,
2013-02-12 04:17:00,16.6,13.0,30.03,SW,215,0.0,4.0,87,0.00,,,0.00,weatherlink.com 1.10,2013-02-12 10:17:00,
2013-02-12 04:32:00,16.7,14.0,30.03,SW,215,0.0,4.0,87,0.00,,,0.00,weatherlink.com 1.10,2013-02-12 10:32:00,
2013-02-12 04:47:00,16.8,14.0,30.02,SSW,209,1.0,5.0,87,0.00,,,0.00,weatherlink.com 1.10,2013-02-12 10:47:00,
2013-02-12 05:02:00,16.9,14.0,30.02,SSW,193,3.0,5.0,87,0.00,,,0.00,weatherlink.com 1.10,2013-02-12 11:02:00,
2013-02-12 05:17:00,17.1,14.0,30.02,SSW,198,3.0,7.0,87,0.00,,,0.00,weatherlink.com 1.10,2013-02-12 11:17:00,
2013-02-12 05:32:00,17.3,14.0,30.02,SSW,199,2.0,7.0,87,0.00,,,0.00,weatherlink.com 1.10,2013-02-12 11:32:00,
2013-02-12 05:49:00,17.1,14.0,30.02,SSW,208,1.0,7.0,87,0.00,,,0.00,weatherlink.com 1.10,2013-02-12 11:49:00,
2013-02-12 06:02:00,16.7,14.0,30.01,SSW,198,2.0,4.0,87,0.00,,,0.00,weatherlink.com 1.10,2013-02-12 12:02:00,
2013-02-12 06:17:00,16.2,13.0,30.01,SSW,202,3.0,6.0,87,0.00,,,0.00,weatherlink.com 1.10,2013-02-12 12:17:00,
2013-02-12 06:32:00,15.8,13.0,30.01,SSW,196,0.0,5.0,88,0.00,,,0.00,weatherlink.com 1.10,2013-02-12 12:32:00,
2013-02-12 06:47:00,15.4,13.0,30.00,South,172,0.0,5.0,89,0.00,,,0.00,weatherlink.com 1.10,2013-02-12 12:47:00,
2013-02-12 07:02:00,14.8,12.0,29.99,South,175,0.0,4.0,89,0.00,,,0.00,weatherlink.com 1.10,2013-02-12 13:02:00,
2013-02-12 07:17:00,14.8,12.0,29.99,South,174,2.0,4.0,90,0.00,,,0.00,weatherlink.com 1.10,2013-02-12 13:17:00,
2013-02-12 07:32:00,14.7,12.0,29.98,South,188,2.0,6.0,90,0.00,,,0.00,weatherlink.com 1.10,2013-02-12 13:32:00,
2013-02-12 07:47:00,14.9,13.0,29.98,South,178,0.0,7.0,90,0.00,,,0.00,weatherlink.com 1.10,2013-02-12 13:47:00,
2013-02-12 08:02:00,15.7,13.0,29.98,South,190,4.0,7.0,90,0.00,,,0.00,weatherlink.com 1.10,2013-02-12 14:02:00,
2013-02-12 08:18:00,16.7,14.0,29.98,South,169,6.0,8.0,89,0.00,,,0.00,weatherlink.com 1.10,2013-02-12 14:18:00,
2013-02-12 08:32:00,17.9,15.0,29.98,South,186,5.0,9.0,88,0.00,,,0.00,weatherlink.com 1.10,2013-02-12 14:32:00,
2013-02-12 08:47:00,19.0,16.0,29.97,SSW,196,0.0,8.0,87,0.00,,,0.00,weatherlink.com 1.10,2013-02-12 14:47:00,
2013-02-12 09:02:00,20.6,17.0,29.97,SSE,167,5.0,7.0,86,0.00,,,0.00,weatherlink.com 1.10,2013-02-12 15:02:00,
2013-02-12 09:17:00,22.2,18.0,29.96,SSW,194,6.0,14.0,85,0.00,,,0.00,weatherlink.com 1.10,2013-02-12 15:17:00,
2013-02-12 09:33:00,22.9,19.0,29.96,SSW,213,7.0,13.0,84,0.00,,,0.00,weatherlink.com 1.10,2013-02-12 15:33:00,
2013-02-12 09:48:00,23.3,19.0,29.96,SW,235,11.0,14.0,83,0.00,,,0.00,weatherlink.com 1.10,2013-02-12 15:48:00,
2013-02-12 10:03:00,23.6,19.0,29.96,SW,221,9.0,19.0,82,0.00,,,0.00,weatherlink.com 1.10,2013-02-12 16:03:00,
2013-02-12 10:33:00,24.5,20.0,29.94,SW,219,8.0,14.0,82,0.00,,,0.00,weatherlink.com 1.10,2013-02-12 16:33:00,
2013-02-12 10:48:00,24.8,20.0,29.94,SSW,207,7.0,13.0,82,0.00,,,0.00,weatherlink.com 1.10,2013-02-12 16:48:00,
2013-02-12 11:03:00,25.8,20.0,29.94,SW,227,4.0,11.0,80,0.00,,,0.00,weatherlink.com 1.10,2013-02-12 17:03:00,
2013-02-12 11:18:00,26.7,21.0,29.94,SW,219,3.0,16.0,79,0.00,,,0.00,weatherlink.com 1.10,2013-02-12 17:18:00,
2013-02-12 11:33:00,27.5,21.0,29.93,SSW,192,12.0,15.0,77,0.00,,,0.00,weatherlink.com 1.10,2013-02-12 17:33:00,
2013-02-12 11:48:00,27.4,21.0,29.93,SW,220,9.0,13.0,76,0.00,,,0.00,weatherlink.com 1.10,2013-02-12 17:48:00,
2013-02-12 12:03:00,27.8,21.0,29.92,SSW,206,5.0,12.0,76,0.00,,,0.00,weatherlink.com 1.10,2013-02-12 18:03:00,
2013-02-12 12:18:00,28.3,21.0,29.91,SSW,202,4.0,10.0,75,0.00,,,0.00,weatherlink.com 1.10,2013-02-12 18:18:00,
2013-02-12 12:33:00,29.5,22.0,29.90,SW,218,8.0,8.0,73,0.00,,,0.00,weatherlink.com 1.10,2013-02-12 18:33:00,
2013-02-12 12:48:00,30.3,22.0,29.89,WSW,248,3.0,9.0,71,0.00,,,0.00,weatherlink.com 1.10,2013-02-12 18:48:00,
2013-02-12 13:03:00,30.6,22.0,29.89,SW,228,4.0,9.0,71,0.00,,,0.00,weatherlink.com 1.10,2013-02-12 19:03:00,
2013-02-12 13:18:00,31.0,23.0,29.88,WSW,247,5.0,10.0,71,0.00,,,0.00,weatherlink.com 1.10,2013-02-12 19:18:00,
2013-02-12 13:34:00,31.4,22.0,29.89,WSW,258,6.0,10.0,69,0.00,,,0.00,weatherlink.com 1.10,2013-02-12 19:34:00,
2013-02-12 13:48:00,31.5,22.0,29.88,SSW,200,7.0,12.0,69,0.01,,,0.01,weatherlink.com 1.10,2013-02-12 19:48:00,
2013-02-12 14:04:00,31.8,23.0,29.87,WSW,250,6.0,12.0,69,0.01,,,0.01,weatherlink.com 1.10,2013-02-12 20:04:00,
2013-02-12 14:18:00,31.8,22.0,29.87,SW,216,7.0,13.0,68,0.01,,,0.01,weatherlink.com 1.10,2013-02-12 20:18:00,
2013-02-12 14:33:00,32.3,23.0,29.87,WSW,239,5.0,9.0,69,0.01,,,0.01,weatherlink.com 1.10,2013-02-12 20:33:00,
2013-02-12 14:48:00,32.1,23.0,29.87,SW,234,6.0,12.0,68,0.00,,,0.01,weatherlink.com 1.10,2013-02-12 20:48:00,
2013-02-12 15:03:00,31.9,23.0,29.87,SW,214,6.0,12.0,69,0.00,,,0.01,weatherlink.com 1.10,2013-02-12 21:03:00,
2013-02-12 15:18:00,31.6,22.0,29.88,WSW,250,8.0,12.0,69,0.00,,,0.01,weatherlink.com 1.10,2013-02-12 21:18:00,
2013-02-12 15:33:00,31.5,22.0,29.88,West,267,7.0,16.0,69,0.00,,,0.01,weatherlink.com 1.10,2013-02-12 21:33:00,
2013-02-12 15:49:00,31.4,22.0,29.88,WSW,249,5.0,13.0,69,0.00,,,0.01,weatherlink.com 1.10,2013-02-12 21:49:00,
2013-02-12 16:03:00,31.0,22.0,29.88,WSW,241,6.0,13.0,70,0.00,,,0.01,weatherlink.com 1.10,2013-02-12 22:03:00,
2013-02-12 16:18:00,30.8,22.0,29.88,SW,216,9.0,10.0,71,0.00,,,0.01,weatherlink.com 1.10,2013-02-12 22:18:00,
2013-02-12 16:33:00,30.5,22.0,29.88,West,265,6.0,8.0,72,0.00,,,0.01,weatherlink.com 1.10,2013-02-12 22:33:00,
2013-02-12 16:48:00,29.8,22.0,29.88,SW,232,9.0,12.0,72,0.00,,,0.01,weatherlink.com 1.10,2013-02-12 22:48:00,
2013-02-12 17:03:00,29.0,21.0,29.88,WSW,255,7.0,12.0,73,0.00,,,0.01,weatherlink.com 1.10,2013-02-12 23:03:00,
2013-02-12 17:18:00,28.2,21.0,29.87,SW,233,4.0,9.0,75,0.00,,,0.01,weatherlink.com 1.10,2013-02-12 23:18:00,
2013-02-12 17:34:00,27.5,21.0,29.87,SW,224,2.0,6.0,76,0.00,,,0.01,weatherlink.com 1.10,2013-02-12 23:34:00,
2013-02-12 17:49:00,26.6,21.0,29.87,SW,219,2.0,6.0,78,0.00,,,0.01,weatherlink.com 1.10,2013-02-12 23:49:00,
2013-02-12 18:04:00,26.1,20.0,29.87,SW,233,2.0,7.0,79,0.00,,,0.01,weatherlink.com 1.10,2013-02-13 00:04:00,
2013-02-12 18:19:00,25.6,20.0,29.88,SW,228,4.0,5.0,80,0.00,,,0.01,weatherlink.com 1.10,2013-02-13 00:19:00,
2013-02-12 18:34:00,25.2,20.0,29.87,SW,231,3.0,4.0,80,0.00,,,0.01,weatherlink.com 1.10,2013-02-13 00:34:00,
2013-02-12 18:49:00,24.8,20.0,29.87,SW,215,3.0,6.0,81,0.00,,,0.01,weatherlink.com 1.10,2013-02-13 00:49:00,
2013-02-12 19:04:00,24.6,20.0,29.87,SSW,211,3.0,6.0,81,0.00,,,0.01,weatherlink.com 1.10,2013-02-13 01:04:00,
2013-02-12 19:19:00,24.3,20.0,29.86,SW,217,2.0,5.0,82,0.00,,,0.01,weatherlink.com 1.10,2013-02-13 01:19:00,
2013-02-12 19:34:00,24.0,20.0,29.86,West,261,5.0,6.0,83,0.00,,,0.01,weatherlink.com 1.10,2013-02-13 01:34:00,
2013-02-12 19:49:00,24.0,20.0,29.86,WSW,250,3.0,9.0,83,0.00,,,0.01,weatherlink.com 1.10,2013-02-13 01:49:00,
2013-02-12 20:04:00,24.2,20.0,29.87,WSW,245,4.0,7.0,83,0.00,,,0.01,weatherlink.com 1.10,2013-02-13 02:04:00,
2013-02-12 20:19:00,24.3,20.0,29.87,SW,227,4.0,8.0,83,0.00,,,0.01,weatherlink.com 1.10,2013-02-13 02:19:00,
2013-02-12 20:34:00,24.0,20.0,29.87,WSW,256,6.0,8.0,83,0.00,,,0.01,weatherlink.com 1.10,2013-02-13 02:34:00,
2013-02-12 20:49:00,23.8,19.0,29.86,West,268,3.0,6.0,83,0.00,,,0.01,weatherlink.com 1.10,2013-02-13 02:49:00,
2013-02-12 21:04:00,23.4,19.0,29.86,WSW,250,2.0,5.0,84,0.00,,,0.01,weatherlink.com 1.10,2013-02-13 03:04:00,
2013-02-12 21:19:00,22.9,19.0,29.86,WSW,254,3.0,6.0,84,0.00,,,0.01,weatherlink.com 1.10,2013-02-13 03:19:00,
2013-02-12 21:34:00,22.5,19.0,29.86,WSW,252,3.0,6.0,85,0.00,,,0.01,weatherlink.com 1.10,2013-02-13 03:34:00,
2013-02-12 21:49:00,22.1,18.0,29.86,WSW,254,3.0,5.0,85,0.00,,,0.01,weatherlink.com 1.10,2013-02-13 03:49:00,
2013-02-12 22:04:00,21.5,18.0,29.84,WSW,248,2.0,4.0,86,0.00,,,0.01,weatherlink.com 1.10,2013-02-13 04:04:00,
2013-02-12 22:19:00,20.8,17.0,29.85,WSW,254,3.0,4.0,86,0.00,,,0.01,weatherlink.com 1.10,2013-02-13 04:19:00,
2013-02-12 22:34:00,20.5,17.0,29.84,WSW,242,2.0,5.0,87,0.00,,,0.01,weatherlink.com 1.10,2013-02-13 04:34:00,
2013-02-12 22:49:00,20.1,17.0,29.84,West,261,1.0,4.0,88,0.00,,,0.01,weatherlink.com 1.10,2013-02-13 04:49:00,
2013-02-12 23:04:00,19.6,17.0,29.83,WSW,247,3.0,4.0,88,0.00,,,0.01,weatherlink.com 1.10,2013-02-13 05:04:00,
2013-02-12 23:19:00,20.1,17.0,29.83,WSW,238,2.0,5.0,88,0.00,,,0.01,weatherlink.com 1.10,2013-02-13 05:19:00,
2013-02-12 23:34:00,20.3,17.0,29.83,SW,234,2.0,5.0,88,0.00,,,0.01,weatherlink.com 1.10,2013-02-13 05:34:00,
2013-02-12 23:49:00,20.2,17.0,29.83,SW,236,1.0,4.0,87,0.00,,,0.01,weatherlink.com 1.10,2013-02-13 05:49:00,